DLH648 EDDF-UAAA

Flight info

Callsign DLH648
Flight time 6h 29m
Altitude 31000
Route CINDY8S/18 CINDY Z74 HAREM DCT ASLEP DCT TAKUT DCT DINKU L603 BESNI/N0483F350 L605 MIQ DCT ALUTU DCT BIBAG Q104 AKIMA DCT STEIN DCT TEGRI/N0472F370 DCT UDROS UN743 GAKSU UT310 SIN UN644 ROLIN N644 ODILI DCT BARAD M747 LUSAL N199 RASAM L88 METKA B476 IZGAR/N0479F390 B476 TIMGA A480 OTBOR/K0882F390 N147 TRK Z621 ARBOL M610 TIPSA
Aircraft A346/H-SDE2E3FGHIJ3J4J5M1RWXY/LB1D1

Departure

Time 2026-05-07 13:24
Airport Frankfurt Main Airport (EDDF)

Arrival

Time 2026-05-07 19:53
Airport Almaty International Airport (UAAA)
Time Latitude Longitude Altitude Speed Heading
2026-05-07 12:34 50.04799 8.56589 368 ft 0 kts 340°
2026-05-07 13:08 50.04794 8.56592 364 ft 4 kts 340°
2026-05-07 13:08 50.04769 8.56607 368 ft 4 kts 340°
2026-05-07 13:08 50.04750 8.56617 367 ft 4 kts 352°
2026-05-07 13:09 50.04734 8.56614 370 ft 4 kts 33°
2026-05-07 13:09 50.04716 8.56588 370 ft 4 kts 49°
2026-05-07 13:09 50.04702 8.56562 367 ft 3 kts 48°
2026-05-07 13:09 50.04683 8.56536 364 ft 4 kts 32°
2026-05-07 13:10 50.04659 8.56517 372 ft 4 kts 22°
2026-05-07 13:10 50.04639 8.56504 367 ft 3 kts 23°
2026-05-07 13:10 50.04615 8.56487 366 ft 4 kts 24°
2026-05-07 13:10 50.04590 8.56470 369 ft 4 kts 25°
2026-05-07 13:11 50.04578 8.56461 370 ft 0 kts 25°
2026-05-07 13:11 50.04601 8.56471 371 ft 4 kts
2026-05-07 13:11 50.04626 8.56468 364 ft 4 kts 347°
2026-05-07 13:11 50.04645 8.56455 368 ft 0 kts 327°
2026-05-07 13:12 50.04651 8.56445 368 ft 2 kts 309°
2026-05-07 13:12 50.04656 8.56412 370 ft 6 kts 268°
2026-05-07 13:12 50.04643 8.56338 368 ft 4 kts 250°
2026-05-07 13:13 50.04640 8.56325 368 ft 0 kts 250°
2026-05-07 13:13 50.04640 8.56324 368 ft 0 kts 250°
2026-05-07 13:14 50.04640 8.56323 367 ft 0 kts 250°
2026-05-07 13:14 50.04636 8.56307 365 ft 3 kts 250°
2026-05-07 13:15 50.04626 8.56265 366 ft 5 kts 250°
2026-05-07 13:15 50.04610 8.56196 369 ft 8 kts 250°
2026-05-07 13:15 50.04588 8.56102 368 ft 10 kts 250°
2026-05-07 13:15 50.04560 8.55999 368 ft 10 kts 236°
2026-05-07 13:16 50.04498 8.55944 370 ft 11 kts 198°
2026-05-07 13:16 50.04415 8.55917 366 ft 13 kts 184°
2026-05-07 13:16 50.04322 8.55941 366 ft 10 kts 160°
2026-05-07 13:16 50.04274 8.55966 367 ft 5 kts 175°
2026-05-07 13:17 50.04241 8.55931 369 ft 8 kts 241°
2026-05-07 13:17 50.04215 8.55837 365 ft 11 kts 249°
2026-05-07 13:17 50.04186 8.55715 365 ft 13 kts 249°
2026-05-07 13:17 50.04151 8.55571 367 ft 15 kts 249°
2026-05-07 13:18 50.04114 8.55414 364 ft 16 kts 249°
2026-05-07 13:18 50.04075 8.55253 366 ft 16 kts 249°
2026-05-07 13:18 50.04035 8.55085 367 ft 17 kts 249°
2026-05-07 13:18 50.03991 8.54901 363 ft 19 kts 249°
2026-05-07 13:19 50.03941 8.54690 362 ft 21 kts 250°
2026-05-07 13:19 50.03892 8.54486 361 ft 20 kts 249°
2026-05-07 13:19 50.03823 8.54288 362 ft 21 kts 235°
2026-05-07 13:19 50.03778 8.54129 358 ft 16 kts 250°
2026-05-07 13:20 50.03737 8.53960 357 ft 18 kts 249°
2026-05-07 13:20 50.03692 8.53772 361 ft 20 kts 250°
2026-05-07 13:20 50.03639 8.53559 357 ft 22 kts 247°
2026-05-07 13:20 50.03587 8.53342 357 ft 21 kts 249°
2026-05-07 13:21 50.03537 8.53135 353 ft 17 kts 250°
2026-05-07 13:21 50.03508 8.53015 353 ft 13 kts 250°
2026-05-07 13:21 50.03473 8.52876 351 ft 15 kts 246°
2026-05-07 13:21 50.03439 8.52753 349 ft 0 kts 250°
2026-05-07 13:22 50.03436 8.52738 350 ft 3 kts 250°
2026-05-07 13:22 50.03424 8.52687 349 ft 6 kts 250°
2026-05-07 13:22 50.03401 8.52617 355 ft 8 kts 225°
2026-05-07 13:22 50.03342 8.52594 349 ft 10 kts 181°
2026-05-07 13:23 50.03323 8.52594 349 ft 0 kts 180°
2026-05-07 13:23 50.03287 8.52594 351 ft 22 kts 180°
2026-05-07 13:23 50.02906 8.52597 353 ft 85 kts 180°
2026-05-07 13:23 50.02124 8.52603 343 ft 138 kts 180°
2026-05-07 13:24 50.00996 8.52629 362 ft 180 kts 177°
2026-05-07 13:24 49.99738 8.52697 859 ft 183 kts 182°
2026-05-07 13:24 49.98443 8.52661 1405 ft 189 kts 184°
2026-05-07 13:24 49.97109 8.52648 1929 ft 194 kts 172°
2026-05-07 13:25 49.95922 8.53612 2286 ft 202 kts 127°
2026-05-07 13:25 49.95211 8.55552 2575 ft 213 kts 114°
2026-05-07 13:25 49.94588 8.57734 2875 ft 228 kts 114°
2026-05-07 13:25 49.94042 8.60116 3280 ft 239 kts 100°
2026-05-07 13:26 49.93863 8.62731 3721 ft 250 kts 91°
2026-05-07 13:26 49.93799 8.65515 4055 ft 265 kts 91°
2026-05-07 13:26 49.93623 8.68405 4586 ft 273 kts 107°
2026-05-07 13:26 49.92612 8.70906 5228 ft 275 kts 140°
2026-05-07 13:27 49.91070 8.72659 5956 ft 276 kts 146°
2026-05-07 13:27 49.89479 8.74376 6639 ft 280 kts 141°
2026-05-07 13:27 49.88108 8.76541 7320 ft 284 kts 126°
2026-05-07 13:27 49.87068 8.79108 8034 ft 286 kts 119°
2026-05-07 13:28 49.86084 8.81868 8744 ft 290 kts 118°
2026-05-07 13:28 49.85121 8.84598 9455 ft 294 kts 119°
2026-05-07 13:28 49.84157 8.87419 10154 ft 298 kts 116°
2026-05-07 13:28 49.83274 8.90378 10642 ft 308 kts 114°
2026-05-07 13:29 49.82376 8.93495 10994 ft 324 kts 114°
2026-05-07 13:29 49.81428 8.96764 11315 ft 341 kts 114°
2026-05-07 13:29 49.80420 9.00187 11629 ft 358 kts 114°
2026-05-07 13:29 49.79353 9.03776 11925 ft 375 kts 115°
2026-05-07 13:30 49.78229 9.07535 12317 ft 389 kts 115°
2026-05-07 13:30 49.77095 9.11329 12926 ft 395 kts 115°
2026-05-07 13:30 49.75924 9.15257 13696 ft 398 kts 115°
2026-05-07 13:30 49.74761 9.19164 14360 ft 401 kts 115°
2026-05-07 13:31 49.73604 9.23045 14998 ft 405 kts 115°
2026-05-07 13:31 49.72400 9.27080 15640 ft 409 kts 115°
2026-05-07 13:31 49.71201 9.31085 16261 ft 413 kts 115°
2026-05-07 13:31 49.70002 9.35081 16885 ft 416 kts 115°
2026-05-07 13:32 49.68777 9.39159 17522 ft 420 kts 115°
2026-05-07 13:32 49.67537 9.43278 18140 ft 424 kts 115°
2026-05-07 13:32 49.66285 9.47431 18677 ft 428 kts 115°
2026-05-07 13:32 49.65019 9.51622 19235 ft 431 kts 115°
2026-05-07 13:33 49.63744 9.55835 19786 ft 434 kts 115°
2026-05-07 13:33 49.62458 9.60081 20337 ft 437 kts 115°
2026-05-07 13:33 49.61162 9.64353 20868 ft 441 kts 115°
2026-05-07 13:33 49.59855 9.68654 21405 ft 444 kts 115°
2026-05-07 13:34 49.58537 9.72980 21945 ft 447 kts 115°
2026-05-07 13:34 49.55887 9.81654 22980 ft 453 kts 115°
2026-05-07 13:34 49.54536 9.86068 23458 ft 456 kts 115°
2026-05-07 13:35 49.53174 9.90516 23820 ft 462 kts 115°
2026-05-07 13:35 49.51789 9.95019 24175 ft 467 kts 115°
2026-05-07 13:35 49.50388 9.99566 24586 ft 470 kts 115°
2026-05-07 13:35 49.48983 10.04122 25035 ft 472 kts 115°
2026-05-07 13:36 49.47566 10.08708 25461 ft 475 kts 115°
2026-05-07 13:36 49.46139 10.13313 25872 ft 477 kts 115°
2026-05-07 13:36 49.44706 10.17932 26294 ft 480 kts 115°
2026-05-07 13:36 49.43262 10.22580 26695 ft 483 kts 115°
2026-05-07 13:37 49.41805 10.27264 27106 ft 485 kts 115°
2026-05-07 13:37 49.40326 10.32008 27515 ft 488 kts 115°
2026-05-07 13:37 49.38871 10.36661 27927 ft 490 kts 115°
2026-05-07 13:37 49.37388 10.41394 28330 ft 492 kts 115°
2026-05-07 13:38 49.35901 10.46133 28754 ft 493 kts 115°
2026-05-07 13:38 49.34409 10.50880 29333 ft 492 kts 115°
2026-05-07 13:38 49.32925 10.55595 29947 ft 490 kts 115°
2026-05-07 13:38 49.31443 10.60293 30462 ft 488 kts 116°
2026-05-07 13:39 49.29962 10.64981 30928 ft 487 kts 116°
2026-05-07 13:39 49.28486 10.69646 31366 ft 486 kts 116°
2026-05-07 13:39 49.27010 10.74306 31792 ft 486 kts 116°
2026-05-07 13:39 49.25529 10.78964 32199 ft 485 kts 116°
2026-05-07 13:40 49.24051 10.83605 32648 ft 484 kts 117°
2026-05-07 13:40 49.22574 10.88239 33056 ft 484 kts 117°
2026-05-07 13:40 49.21092 10.92874 33421 ft 485 kts 117°
2026-05-07 13:40 49.19604 10.97515 33759 ft 486 kts 117°
2026-05-07 13:41 49.18116 11.02148 34056 ft 487 kts 117°
2026-05-07 13:41 49.16613 11.06823 34291 ft 489 kts 117°
2026-05-07 13:41 49.15107 11.11501 34536 ft 490 kts 117°
2026-05-07 13:41 49.13595 11.16194 34793 ft 492 kts 118°
2026-05-07 13:42 49.12076 11.20890 34995 ft 493 kts 118°
2026-05-07 13:42 49.09036 11.30256 35009 ft 494 kts 118°
2026-05-07 13:43 49.05973 11.39674 35015 ft 494 kts 118°
2026-05-07 13:43 49.02903 11.49073 35016 ft 494 kts 118°
2026-05-07 13:44 48.99826 11.58475 35021 ft 494 kts 118°
2026-05-07 13:44 48.96748 11.67826 35020 ft 494 kts 119°
2026-05-07 13:45 48.93648 11.77205 35014 ft 493 kts 119°
2026-05-07 13:45 48.90556 11.86531 35014 ft 494 kts 119°
2026-05-07 13:46 48.87450 11.95888 35013 ft 495 kts 119°
2026-05-07 13:46 48.84334 12.05216 35012 ft 495 kts 120°
2026-05-07 13:47 48.81206 12.14544 35012 ft 495 kts 120°
2026-05-07 13:47 48.78067 12.23870 35009 ft 495 kts 120°
2026-05-07 13:48 48.74929 12.33174 35001 ft 495 kts 120°
2026-05-07 13:48 48.71802 12.42414 35006 ft 496 kts 120°
2026-05-07 13:49 48.68643 12.51698 35008 ft 496 kts 120°
2026-05-07 13:49 48.65473 12.60985 35006 ft 496 kts 120°
2026-05-07 13:50 48.62299 12.70249 35006 ft 496 kts 120°
2026-05-07 13:50 48.59111 12.79520 35005 ft 496 kts 121°
2026-05-07 13:51 48.55920 12.88771 35003 ft 496 kts 121°
2026-05-07 13:51 48.52741 12.98031 35005 ft 496 kts 121°
2026-05-07 13:52 48.49562 13.07271 34997 ft 496 kts 121°
2026-05-07 13:52 48.46373 13.16499 35004 ft 495 kts 121°
2026-05-07 13:53 48.43177 13.25702 35004 ft 495 kts 121°
2026-05-07 13:53 48.40641 13.33470 35004 ft 497 kts 117°
2026-05-07 13:54 48.37933 13.43076 35006 ft 498 kts 116°
2026-05-07 13:54 48.35251 13.52630 34996 ft 498 kts 116°
2026-05-07 13:55 48.32533 13.62241 35000 ft 498 kts 116°
2026-05-07 13:55 48.29808 13.71835 34998 ft 498 kts 117°
2026-05-07 13:56 48.27077 13.81407 34998 ft 498 kts 117°
2026-05-07 13:56 48.24344 13.90969 34995 ft 497 kts 117°
2026-05-07 13:57 48.21604 14.00492 34988 ft 498 kts 117°
2026-05-07 13:57 48.18846 14.10039 34992 ft 498 kts 117°
2026-05-07 13:58 48.16085 14.19565 34993 ft 498 kts 117°
2026-05-07 13:58 48.13320 14.29096 34984 ft 496 kts 118°
2026-05-07 13:59 48.10550 14.38574 34988 ft 496 kts 118°
2026-05-07 13:59 48.07774 14.48031 34983 ft 496 kts 118°
2026-05-07 14:00 48.05006 14.57428 34979 ft 496 kts 118°
2026-05-07 14:00 48.02218 14.66877 34959 ft 497 kts 119°
2026-05-07 14:01 47.99416 14.76317 34964 ft 497 kts 119°
2026-05-07 14:01 47.96604 14.85757 34969 ft 497 kts 119°
2026-05-07 14:02 47.93786 14.95182 34964 ft 497 kts 119°
2026-05-07 14:02 47.90976 15.04586 34951 ft 492 kts 120°
2026-05-07 14:03 47.88176 15.13877 34959 ft 490 kts 120°
2026-05-07 14:03 47.85363 15.23159 34966 ft 491 kts 120°
2026-05-07 14:04 47.82550 15.32423 34969 ft 490 kts 120°
2026-05-07 14:04 47.79735 15.41675 34958 ft 489 kts 121°
2026-05-07 14:05 47.76916 15.50893 34953 ft 489 kts 121°
2026-05-07 14:05 47.74088 15.60104 34956 ft 489 kts 121°
2026-05-07 14:06 47.71249 15.69319 34947 ft 489 kts 121°
2026-05-07 14:06 47.68429 15.78445 34946 ft 488 kts 121°
2026-05-07 14:07 47.65579 15.87637 34952 ft 486 kts 121°
2026-05-07 14:07 47.62740 15.96751 34951 ft 486 kts 121°
2026-05-07 14:08 47.59893 16.05857 34954 ft 486 kts 121°
2026-05-07 14:08 47.57037 16.14965 34942 ft 486 kts 121°
2026-05-07 14:09 47.54181 16.24038 34953 ft 486 kts 121°
2026-05-07 14:09 47.51313 16.33113 34952 ft 485 kts 121°
2026-05-07 14:10 47.48463 16.42101 34954 ft 485 kts 122°
2026-05-07 14:10 47.45665 16.50889 34954 ft 485 kts 122°
2026-05-07 14:11 47.42849 16.60015 34951 ft 490 kts 118°
2026-05-07 14:11 47.40497 16.69566 34952 ft 494 kts 115°
2026-05-07 14:12 47.38252 16.79154 34953 ft 494 kts 115°
2026-05-07 14:12 47.35995 16.88748 34937 ft 493 kts 116°
2026-05-07 14:13 47.33740 16.98259 34955 ft 493 kts 116°
2026-05-07 14:13 47.31465 17.07804 34969 ft 493 kts 116°
2026-05-07 14:14 47.29178 17.17356 34992 ft 493 kts 116°
2026-05-07 14:14 47.26889 17.26883 34973 ft 492 kts 116°
2026-05-07 14:15 47.24612 17.36315 34985 ft 491 kts 116°
2026-05-07 14:15 47.22309 17.45806 34990 ft 491 kts 116°
2026-05-07 14:16 47.20001 17.55281 34990 ft 491 kts 116°
2026-05-07 14:16 47.17685 17.64743 34972 ft 492 kts 116°
2026-05-07 14:17 47.15350 17.74250 34987 ft 492 kts 116°
2026-05-07 14:17 47.13018 17.83714 34989 ft 492 kts 116°
2026-05-07 14:18 47.10675 17.93176 34990 ft 492 kts 116°
2026-05-07 14:18 47.08328 18.02615 34981 ft 491 kts 116°
2026-05-07 14:19 47.05991 18.11973 34989 ft 491 kts 116°
2026-05-07 14:19 47.03628 18.21394 34983 ft 491 kts 116°
2026-05-07 14:20 47.01263 18.30789 34989 ft 491 kts 116°
2026-05-07 14:20 46.98885 18.40184 34978 ft 492 kts 116°
2026-05-07 14:21 46.96493 18.49605 34995 ft 493 kts 116°
2026-05-07 14:21 46.94092 18.59027 34993 ft 493 kts 116°
2026-05-07 14:22 46.91696 18.68389 34991 ft 493 kts 117°
2026-05-07 14:22 46.89274 18.77800 34980 ft 494 kts 116°
2026-05-07 14:23 46.86844 18.87218 34995 ft 494 kts 116°
2026-05-07 14:23 46.84408 18.96625 34986 ft 494 kts 116°
2026-05-07 14:24 46.81980 19.05952 34993 ft 494 kts 116°
2026-05-07 14:24 46.79525 19.15343 34990 ft 494 kts 116°
2026-05-07 14:25 46.77069 19.24712 34995 ft 494 kts 116°
2026-05-07 14:25 46.74606 19.34070 34997 ft 493 kts 116°
2026-05-07 14:26 46.72133 19.43424 35002 ft 493 kts 116°
2026-05-07 14:26 46.69663 19.52711 34994 ft 494 kts 116°
2026-05-07 14:27 46.67172 19.62064 35001 ft 494 kts 116°
2026-05-07 14:27 46.64673 19.71412 35008 ft 494 kts 116°
2026-05-07 14:28 46.62168 19.80735 34987 ft 494 kts 116°
2026-05-07 14:28 46.59670 19.89991 34999 ft 493 kts 116°
2026-05-07 14:29 46.57152 19.99294 35007 ft 493 kts 116°
2026-05-07 14:29 46.54637 20.08551 35016 ft 493 kts 116°
2026-05-07 14:30 46.52106 20.17822 35012 ft 493 kts 116°
2026-05-07 14:30 46.49569 20.27086 35014 ft 493 kts 116°
2026-05-07 14:31 46.47035 20.36299 35016 ft 493 kts 116°
2026-05-07 14:31 46.44479 20.45556 35014 ft 493 kts 116°
2026-05-07 14:32 46.41922 20.54784 34999 ft 491 kts 117°
2026-05-07 14:32 46.39362 20.63984 35016 ft 491 kts 117°
2026-05-07 14:33 46.36814 20.73109 35015 ft 491 kts 117°
2026-05-07 14:33 46.34240 20.82289 35018 ft 491 kts 117°
2026-05-07 14:34 46.31664 20.91440 35010 ft 489 kts 117°
2026-05-07 14:34 46.29092 21.00545 35031 ft 488 kts 117°
2026-05-07 14:34 46.27797 21.05111 35137 ft 491 kts 117°
2026-05-07 14:35 46.26514 21.09627 35529 ft 489 kts 117°
2026-05-07 14:35 46.25189 21.14137 35968 ft 486 kts 118°
2026-05-07 14:35 46.23814 21.18589 36337 ft 484 kts 119°
2026-05-07 14:35 46.22423 21.23023 36634 ft 484 kts 118°
2026-05-07 14:36 46.21027 21.27458 36893 ft 484 kts 118°
2026-05-07 14:36 46.19636 21.31894 37041 ft 485 kts 118°
2026-05-07 14:36 46.18246 21.36328 37015 ft 485 kts 118°
2026-05-07 14:37 46.15650 21.44605 37017 ft 485 kts 118°
2026-05-07 14:37 46.11466 21.57905 36996 ft 485 kts 118°
2026-05-07 14:38 46.08678 21.66724 37013 ft 485 kts 118°
2026-05-07 14:38 46.05875 21.75578 37016 ft 485 kts 118°
2026-05-07 14:39 46.03063 21.84425 37018 ft 485 kts 118°
2026-05-07 14:40 45.97551 22.01672 37015 ft 486 kts 118°
2026-05-07 14:40 45.94716 22.10501 37015 ft 486 kts 118°
2026-05-07 14:41 45.91890 22.19272 37014 ft 486 kts 118°
2026-05-07 14:41 45.89042 22.28083 37008 ft 487 kts 119°
2026-05-07 14:42 45.86178 22.36908 37017 ft 487 kts 119°
2026-05-07 14:42 45.83304 22.45730 37019 ft 488 kts 119°
2026-05-07 14:43 45.80424 22.54547 37018 ft 487 kts 119°
2026-05-07 14:43 45.77535 22.63359 37013 ft 488 kts 119°
2026-05-07 14:44 45.74635 22.72177 37023 ft 488 kts 119°
2026-05-07 14:44 45.71728 22.80985 37021 ft 488 kts 119°
2026-05-07 14:45 45.68835 22.89725 37014 ft 489 kts 119°
2026-05-07 14:45 45.65909 22.98520 37014 ft 490 kts 119°
2026-05-07 14:46 45.62977 23.07321 37014 ft 490 kts 119°
2026-05-07 14:46 45.60040 23.16110 37021 ft 489 kts 119°
2026-05-07 14:47 45.57093 23.24891 37014 ft 489 kts 119°
2026-05-07 14:47 45.54162 23.33591 37024 ft 489 kts 119°
2026-05-07 14:48 45.51204 23.42348 37045 ft 489 kts 119°
2026-05-07 14:48 45.48240 23.51094 37040 ft 489 kts 119°
2026-05-07 14:49 45.45272 23.59822 37040 ft 489 kts 120°
2026-05-07 14:49 45.42315 23.68491 37046 ft 489 kts 120°
2026-05-07 14:50 45.39332 23.77205 37034 ft 489 kts 120°
2026-05-07 14:50 45.36343 23.85909 37040 ft 489 kts 120°
2026-05-07 14:51 45.33344 23.94608 37047 ft 490 kts 120°
2026-05-07 14:51 45.30339 24.03306 37044 ft 490 kts 120°
2026-05-07 14:52 45.27326 24.11996 37044 ft 490 kts 120°
2026-05-07 14:52 45.24321 24.20631 37043 ft 490 kts 120°
2026-05-07 14:53 45.21283 24.29323 37036 ft 490 kts 120°
2026-05-07 14:53 45.18245 24.38008 37033 ft 491 kts 120°
2026-05-07 14:54 45.15218 24.46627 37041 ft 491 kts 120°
2026-05-07 14:54 45.12164 24.55293 37026 ft 491 kts 120°
2026-05-07 14:55 45.09102 24.63954 37034 ft 491 kts 120°
2026-05-07 14:55 45.06040 24.72588 37032 ft 491 kts 120°
2026-05-07 14:56 45.02964 24.81232 37025 ft 491 kts 120°
2026-05-07 14:56 44.99906 24.89799 37025 ft 491 kts 120°
2026-05-07 14:57 44.96817 24.98423 37026 ft 490 kts 120°
2026-05-07 14:57 44.93732 25.07013 37028 ft 490 kts 120°
2026-05-07 14:58 44.90638 25.15599 37025 ft 490 kts 120°
2026-05-07 14:58 44.87527 25.24196 37023 ft 491 kts 120°
2026-05-07 14:59 44.84413 25.32786 37020 ft 492 kts 120°
2026-05-07 14:59 44.81308 25.41325 37019 ft 492 kts 120°
2026-05-07 15:00 44.78177 25.49904 37013 ft 492 kts 120°
2026-05-07 15:00 44.75028 25.58500 37017 ft 494 kts 120°
2026-05-07 15:01 44.71871 25.67100 37018 ft 494 kts 120°
2026-05-07 15:01 44.68701 25.75707 37019 ft 494 kts 120°
2026-05-07 15:02 44.65541 25.84249 37021 ft 496 kts 119°
2026-05-07 15:02 44.62349 25.92864 37019 ft 497 kts 119°
2026-05-07 15:03 44.59147 26.01480 37015 ft 497 kts 120°
2026-05-07 15:03 44.55938 26.10085 37022 ft 497 kts 120°
2026-05-07 15:04 44.52716 26.18680 37019 ft 498 kts 119°
2026-05-07 15:04 44.49510 26.27230 37025 ft 498 kts 119°
2026-05-07 15:05 44.46276 26.35826 37034 ft 498 kts 119°
2026-05-07 15:05 44.43035 26.44403 37024 ft 498 kts 119°
2026-05-07 15:06 44.39784 26.52990 37030 ft 499 kts 119°
2026-05-07 15:06 44.36519 26.61584 37045 ft 499 kts 119°
2026-05-07 15:07 44.33271 26.70105 37037 ft 499 kts 119°
2026-05-07 15:07 44.29984 26.78700 37038 ft 504 kts 120°
2026-05-07 15:08 44.26665 26.87353 37037 ft 505 kts 120°
2026-05-07 15:08 44.23341 26.95993 37042 ft 505 kts 120°
2026-05-07 15:09 44.20007 27.04623 37036 ft 506 kts 119°
2026-05-07 15:09 44.16660 27.13272 37041 ft 506 kts 119°
2026-05-07 15:10 44.13311 27.21902 37044 ft 506 kts 119°
2026-05-07 15:10 44.09953 27.30527 37054 ft 506 kts 120°
2026-05-07 15:11 44.06601 27.39094 37062 ft 508 kts 119°
2026-05-07 15:11 44.03212 27.47748 37054 ft 508 kts 119°
2026-05-07 15:12 43.99819 27.56384 37060 ft 508 kts 119°
2026-05-07 15:12 43.96434 27.64960 37069 ft 509 kts 119°
2026-05-07 15:13 43.93023 27.73587 37084 ft 509 kts 119°
2026-05-07 15:13 43.89607 27.82205 37077 ft 509 kts 119°
2026-05-07 15:14 43.86179 27.90818 37082 ft 510 kts 118°
2026-05-07 15:14 43.82734 27.99441 37091 ft 511 kts 118°
2026-05-07 15:15 43.79293 28.08056 37091 ft 511 kts 119°
2026-05-07 15:15 43.75831 28.16677 37099 ft 511 kts 119°
2026-05-07 15:16 43.72383 28.25221 37106 ft 512 kts 118°
2026-05-07 15:16 43.68905 28.33834 37107 ft 512 kts 119°
2026-05-07 15:17 43.65420 28.42441 37118 ft 512 kts 119°
2026-05-07 15:17 43.61921 28.51043 37114 ft 513 kts 118°
2026-05-07 15:18 43.58417 28.59637 37127 ft 513 kts 118°
2026-05-07 15:18 43.54928 28.68179 37131 ft 513 kts 118°
2026-05-07 15:19 43.51410 28.76759 37143 ft 513 kts 118°
2026-05-07 15:19 43.47883 28.85323 37134 ft 513 kts 118°
2026-05-07 15:20 43.44351 28.93893 37130 ft 513 kts 118°
2026-05-07 15:20 43.40819 29.02432 37129 ft 513 kts 118°
2026-05-07 15:21 43.37274 29.10971 37134 ft 513 kts 118°
2026-05-07 15:21 43.33743 29.19457 37134 ft 514 kts 118°
2026-05-07 15:22 43.30187 29.27978 37134 ft 514 kts 118°
2026-05-07 15:22 43.26620 29.36496 37137 ft 514 kts 118°
2026-05-07 15:23 43.23049 29.45001 37136 ft 514 kts 118°
2026-05-07 15:23 43.19472 29.53497 37122 ft 514 kts 118°
2026-05-07 15:24 43.15905 29.61945 37135 ft 515 kts 118°
2026-05-07 15:24 43.12310 29.70431 37136 ft 515 kts 118°
2026-05-07 15:25 43.08703 29.78918 37138 ft 515 kts 118°
2026-05-07 15:25 43.05092 29.87394 37148 ft 515 kts 118°
2026-05-07 15:26 43.01475 29.95854 37139 ft 514 kts 118°
2026-05-07 15:26 42.98475 30.02859 37139 ft 514 kts 118°
2026-05-07 15:27 42.94256 30.12678 37139 ft 514 kts 118°
2026-05-07 15:27 42.90621 30.21108 37149 ft 514 kts 118°
2026-05-07 15:28 42.86988 30.29514 37141 ft 514 kts 118°
2026-05-07 15:28 42.83965 30.36488 37139 ft 514 kts 118°
2026-05-07 15:29 42.80319 30.44877 37148 ft 513 kts 119°
2026-05-07 15:29 42.76750 30.53289 37138 ft 511 kts 116°
2026-05-07 15:30 42.73800 30.62006 37140 ft 509 kts 109°
2026-05-07 15:30 42.71588 30.71132 37138 ft 506 kts 102°
2026-05-07 15:31 42.69790 30.80397 37138 ft 505 kts 102°
2026-05-07 15:31 42.67993 30.89645 37150 ft 505 kts 102°
2026-05-07 15:32 42.66178 30.98881 37136 ft 505 kts 102°
2026-05-07 15:32 42.64349 31.08114 37138 ft 505 kts 102°
2026-05-07 15:33 42.62512 31.17336 37140 ft 505 kts 102°
2026-05-07 15:33 42.60680 31.26496 37138 ft 505 kts 102°
2026-05-07 15:34 42.58827 31.35717 37137 ft 505 kts 103°
2026-05-07 15:34 42.56963 31.44936 37145 ft 505 kts 102°
2026-05-07 15:35 42.55099 31.54132 37142 ft 505 kts 102°
2026-05-07 15:35 42.53226 31.63330 37139 ft 505 kts 102°
2026-05-07 15:36 42.51344 31.72524 37151 ft 505 kts 102°
2026-05-07 15:36 42.49453 31.81712 37143 ft 505 kts 102°
2026-05-07 15:37 42.47557 31.90900 37138 ft 505 kts 102°
2026-05-07 15:37 42.45669 32.00004 37137 ft 505 kts 103°
2026-05-07 15:38 42.43752 32.09202 37159 ft 506 kts 103°
2026-05-07 15:38 42.41833 32.18369 37143 ft 505 kts 103°
2026-05-07 15:39 42.39905 32.27541 37138 ft 505 kts 103°
2026-05-07 15:39 42.37974 32.36689 37152 ft 505 kts 103°
2026-05-07 15:40 42.36041 32.45801 37141 ft 506 kts 103°
2026-05-07 15:40 42.34107 32.54964 37137 ft 505 kts 102°
2026-05-07 15:41 42.32680 32.64245 37137 ft 502 kts 96°
2026-05-07 15:41 42.31626 32.73597 37138 ft 502 kts 95°
2026-05-07 15:42 42.30577 32.82951 37135 ft 502 kts 95°
2026-05-07 15:42 42.29514 32.92288 37141 ft 502 kts 95°
2026-05-07 15:43 42.28444 33.01583 37141 ft 502 kts 95°
2026-05-07 15:43 42.27361 33.10923 37146 ft 503 kts 96°
2026-05-07 15:44 42.26268 33.20270 37142 ft 503 kts 96°
2026-05-07 15:44 42.25166 33.29615 37141 ft 503 kts 96°
2026-05-07 15:45 42.24060 33.38950 37147 ft 502 kts 96°
2026-05-07 15:45 42.22946 33.48272 37151 ft 502 kts 96°
2026-05-07 15:46 42.21270 33.62163 37143 ft 501 kts 96°
2026-05-07 15:47 42.20138 33.71462 37150 ft 501 kts 96°
2026-05-07 15:47 42.18999 33.80760 37162 ft 501 kts 96°
2026-05-07 15:48 42.17857 33.90033 37151 ft 501 kts 96°
2026-05-07 15:48 42.16706 33.99307 37154 ft 501 kts 97°
2026-05-07 15:49 42.15548 34.08572 37153 ft 501 kts 97°
2026-05-07 15:49 42.14389 34.17791 37159 ft 501 kts 97°
2026-05-07 15:50 42.13213 34.27080 37162 ft 501 kts 97°
2026-05-07 15:50 42.12029 34.36351 37161 ft 501 kts 97°
2026-05-07 15:51 42.10831 34.45610 37149 ft 501 kts 97°
2026-05-07 15:51 42.09560 34.54852 37155 ft 501 kts 98°
2026-05-07 15:52 42.08280 34.64024 37152 ft 501 kts 98°
2026-05-07 15:52 42.06991 34.73247 37162 ft 501 kts 98°
2026-05-07 15:53 42.05702 34.82479 37148 ft 500 kts 97°
2026-05-07 15:53 42.04856 34.91773 37159 ft 498 kts 92°
2026-05-07 15:54 42.04312 35.01005 37160 ft 498 kts 92°
2026-05-07 15:54 42.03764 35.10323 37163 ft 498 kts 92°
2026-05-07 15:55 42.03204 35.19615 37180 ft 497 kts 92°
2026-05-07 15:55 42.02634 35.28888 37176 ft 496 kts 92°
2026-05-07 15:56 42.02057 35.38151 37167 ft 496 kts 92°
2026-05-07 15:56 42.01476 35.47348 37171 ft 496 kts 92°
2026-05-07 15:57 42.00884 35.56604 37171 ft 496 kts 92°
2026-05-07 15:57 42.00284 35.65871 37175 ft 495 kts 92°
2026-05-07 15:58 41.99677 35.75123 37173 ft 495 kts 92°
2026-05-07 15:58 41.99067 35.84295 37174 ft 495 kts 92°
2026-05-07 15:59 41.98447 35.93529 37182 ft 494 kts 93°
2026-05-07 15:59 41.97823 36.02721 37171 ft 492 kts 93°
2026-05-07 16:00 41.97190 36.11896 37178 ft 492 kts 93°
2026-05-07 16:00 41.96550 36.21059 37179 ft 492 kts 93°
2026-05-07 16:01 41.95907 36.30171 37182 ft 492 kts 93°
2026-05-07 16:01 41.95252 36.39354 37182 ft 492 kts 94°
2026-05-07 16:02 41.94596 36.48458 37179 ft 492 kts 94°
2026-05-07 16:02 41.93927 36.57626 37179 ft 492 kts 94°
2026-05-07 16:03 41.93253 36.66782 37185 ft 491 kts 94°
2026-05-07 16:03 41.92571 36.75922 37182 ft 491 kts 94°
2026-05-07 16:04 41.91882 36.85075 37182 ft 492 kts 94°
2026-05-07 16:04 41.91181 36.94256 37185 ft 492 kts 94°
2026-05-07 16:05 41.90504 37.03410 37183 ft 492 kts 92°
2026-05-07 16:05 41.90263 37.12565 37185 ft 491 kts 89°
2026-05-07 16:06 41.90138 37.21757 37187 ft 492 kts 89°
2026-05-07 16:06 41.90005 37.30951 37192 ft 492 kts 89°
2026-05-07 16:07 41.89861 37.40092 37187 ft 492 kts 89°
2026-05-07 16:07 41.89706 37.49297 37184 ft 492 kts 90°
2026-05-07 16:08 41.89544 37.58498 37185 ft 492 kts 90°
2026-05-07 16:08 41.89376 37.67700 37185 ft 492 kts 90°
2026-05-07 16:09 41.89199 37.76900 37184 ft 492 kts 90°
2026-05-07 16:09 41.89016 37.86038 37184 ft 492 kts 90°
2026-05-07 16:10 41.88825 37.95231 37188 ft 491 kts 90°
2026-05-07 16:10 41.88628 38.04400 37186 ft 491 kts 90°
2026-05-07 16:11 41.88422 38.13597 37186 ft 491 kts 90°
2026-05-07 16:11 41.88210 38.22710 37183 ft 491 kts 90°
2026-05-07 16:12 41.87989 38.31897 37189 ft 491 kts 90°
2026-05-07 16:12 41.87762 38.41079 37186 ft 491 kts 90°
2026-05-07 16:13 41.87530 38.50217 37191 ft 492 kts 91°
2026-05-07 16:13 41.87287 38.59399 37186 ft 492 kts 91°
2026-05-07 16:14 41.87037 38.68590 37188 ft 492 kts 91°
2026-05-07 16:14 41.86779 38.77787 37186 ft 492 kts 91°
2026-05-07 16:15 41.86515 38.86972 37188 ft 492 kts 91°
2026-05-07 16:15 41.86246 38.96106 37188 ft 492 kts 91°
2026-05-07 16:16 41.85966 39.05295 37195 ft 492 kts 91°
2026-05-07 16:16 41.85680 39.14492 37190 ft 492 kts 91°
2026-05-07 16:17 41.85386 39.23677 37188 ft 492 kts 91°
2026-05-07 16:17 41.85085 39.32874 37190 ft 493 kts 92°
2026-05-07 16:18 41.84776 39.42074 37200 ft 493 kts 92°
2026-05-07 16:18 41.84457 39.51284 37192 ft 493 kts 92°
2026-05-07 16:19 41.84135 39.60496 37192 ft 493 kts 92°
2026-05-07 16:19 41.83810 39.69639 37194 ft 493 kts 92°
2026-05-07 16:20 41.83473 39.78862 37199 ft 495 kts 92°
2026-05-07 16:20 41.83125 39.88094 37199 ft 495 kts 92°
2026-05-07 16:21 41.82771 39.97331 37194 ft 495 kts 92°
2026-05-07 16:21 41.82409 40.06563 37194 ft 495 kts 92°
2026-05-07 16:22 41.82041 40.15799 37197 ft 496 kts 93°
2026-05-07 16:22 41.81667 40.24986 37190 ft 496 kts 93°
2026-05-07 16:23 41.81282 40.34245 37194 ft 496 kts 93°
2026-05-07 16:23 41.80888 40.43500 37197 ft 496 kts 93°
2026-05-07 16:24 41.80488 40.52750 37191 ft 496 kts 93°
2026-05-07 16:24 41.80148 40.60450 37199 ft 496 kts 93°
2026-05-07 16:25 41.79656 40.71187 37199 ft 496 kts 94°
2026-05-07 16:25 41.79205 40.80431 37191 ft 496 kts 94°
2026-05-07 16:26 41.78746 40.89670 37192 ft 496 kts 94°
2026-05-07 16:26 41.78360 40.97355 37193 ft 496 kts 94°
2026-05-07 16:27 41.77889 41.06586 37196 ft 497 kts 94°
2026-05-07 16:27 41.77410 41.15825 37195 ft 496 kts 94°
2026-05-07 16:28 41.76923 41.25074 37205 ft 496 kts 94°
2026-05-07 16:28 41.76430 41.34316 37201 ft 496 kts 94°
2026-05-07 16:29 41.75931 41.43560 37211 ft 497 kts 94°
2026-05-07 16:29 41.75421 41.52814 37204 ft 497 kts 94°
2026-05-07 16:30 41.74901 41.62109 37203 ft 497 kts 94°
2026-05-07 16:30 41.74380 41.71296 37205 ft 498 kts 95°
2026-05-07 16:31 41.73849 41.80554 37198 ft 498 kts 95°
2026-05-07 16:31 41.73309 41.89838 37203 ft 499 kts 95°
2026-05-07 16:32 41.72757 41.99146 37204 ft 499 kts 95°
2026-05-07 16:32 41.72188 42.08422 37203 ft 500 kts 96°
2026-05-07 16:33 41.71260 42.17684 37199 ft 499 kts 99°
2026-05-07 16:33 41.70252 42.26919 37198 ft 501 kts 99°
2026-05-07 16:34 41.69234 42.36131 37213 ft 502 kts 99°
2026-05-07 16:34 41.68206 42.45406 37192 ft 502 kts 99°
2026-05-07 16:35 41.67174 42.54651 37206 ft 502 kts 99°
2026-05-07 16:35 41.66142 42.63868 37198 ft 504 kts 99°
2026-05-07 16:36 41.65091 42.73151 37189 ft 504 kts 100°
2026-05-07 16:36 41.64031 42.82435 37200 ft 504 kts 100°
2026-05-07 16:37 41.62964 42.91728 37195 ft 504 kts 100°
2026-05-07 16:37 41.61901 43.00943 37190 ft 506 kts 100°
2026-05-07 16:38 41.60814 43.10259 37190 ft 506 kts 100°
2026-05-07 16:38 41.59720 43.19573 37195 ft 507 kts 101°
2026-05-07 16:39 41.58619 43.28883 37197 ft 506 kts 101°
2026-05-07 16:39 41.57512 43.38211 37195 ft 508 kts 101°
2026-05-07 16:40 41.56397 43.47504 37197 ft 508 kts 101°
2026-05-07 16:40 41.55268 43.56843 37195 ft 508 kts 101°
2026-05-07 16:41 41.54132 43.66177 37204 ft 508 kts 101°
2026-05-07 16:41 41.52991 43.75514 37190 ft 510 kts 101°
2026-05-07 16:42 41.51837 43.84872 37192 ft 510 kts 102°
2026-05-07 16:42 41.50681 43.94177 37195 ft 510 kts 102°
2026-05-07 16:43 41.49512 44.03532 37193 ft 511 kts 102°
2026-05-07 16:43 41.48336 44.12891 37179 ft 512 kts 102°
2026-05-07 16:44 41.47146 44.22274 37187 ft 513 kts 102°
2026-05-07 16:44 41.45953 44.31613 37179 ft 513 kts 102°
2026-05-07 16:45 41.44746 44.41007 37176 ft 513 kts 102°
2026-05-07 16:45 41.43534 44.50390 37167 ft 513 kts 102°
2026-05-07 16:46 41.42311 44.59774 37165 ft 513 kts 102°
2026-05-07 16:46 41.41092 44.69081 37165 ft 513 kts 102°
2026-05-07 16:47 41.39857 44.78449 37159 ft 513 kts 103°
2026-05-07 16:47 41.38616 44.87823 37140 ft 515 kts 103°
2026-05-07 16:48 41.37355 44.97236 37152 ft 515 kts 103°
2026-05-07 16:48 41.35997 45.06610 37152 ft 514 kts 107°
2026-05-07 16:49 41.33991 45.15729 37150 ft 511 kts 112°
2026-05-07 16:49 41.31701 45.24641 37144 ft 511 kts 112°
2026-05-07 16:50 41.29379 45.33612 37148 ft 512 kts 112°
2026-05-07 16:50 41.27061 45.42569 37133 ft 512 kts 112°
2026-05-07 16:51 41.24737 45.51539 37116 ft 512 kts 113°
2026-05-07 16:51 41.22406 45.60509 37139 ft 513 kts 113°
2026-05-07 16:52 41.20060 45.69476 37135 ft 513 kts 113°
2026-05-07 16:52 41.17700 45.78438 37144 ft 513 kts 113°
2026-05-07 16:53 41.15354 45.87331 37128 ft 514 kts 114°
2026-05-07 16:53 41.12975 45.96298 37126 ft 515 kts 114°
2026-05-07 16:54 41.10591 46.05250 37133 ft 514 kts 114°
2026-05-07 16:54 41.08201 46.14206 37116 ft 515 kts 114°
2026-05-07 16:55 41.05798 46.23172 37125 ft 516 kts 115°
2026-05-07 16:55 41.03380 46.32162 37130 ft 516 kts 114°
2026-05-07 16:56 41.00982 46.41140 37127 ft 516 kts 114°
2026-05-07 16:56 40.97393 46.54555 37122 ft 518 kts 115°
2026-05-07 16:57 40.94968 46.63550 37111 ft 518 kts 115°
2026-05-07 16:57 40.92536 46.72547 37113 ft 518 kts 115°
2026-05-07 16:58 40.90097 46.81536 37097 ft 519 kts 115°
2026-05-07 16:58 40.87636 46.90542 37098 ft 520 kts 115°
2026-05-07 16:59 40.85185 46.99468 37089 ft 519 kts 115°
2026-05-07 16:59 40.82711 47.08455 37076 ft 520 kts 115°
2026-05-07 17:00 40.80224 47.17440 37082 ft 520 kts 116°
2026-05-07 17:00 40.77717 47.26418 37078 ft 520 kts 116°
2026-05-07 17:01 40.75203 47.35382 37054 ft 520 kts 116°
2026-05-07 17:01 40.72687 47.44349 37079 ft 520 kts 116°
2026-05-07 17:02 40.70170 47.53306 37095 ft 520 kts 116°
2026-05-07 17:02 40.67663 47.62194 37097 ft 520 kts 116°
2026-05-07 17:03 40.65133 47.71134 37106 ft 520 kts 116°
2026-05-07 17:03 40.62595 47.80062 37108 ft 520 kts 116°
2026-05-07 17:04 40.60373 47.89167 37110 ft 525 kts 109°
2026-05-07 17:04 40.59024 47.98687 37104 ft 532 kts 101°
2026-05-07 17:05 40.58632 48.08471 37110 ft 538 kts 93°
2026-05-07 17:05 40.58941 48.18349 37122 ft 540 kts 91°
2026-05-07 17:06 40.59244 48.28189 37121 ft 540 kts 92°
2026-05-07 17:06 40.59500 48.38084 37126 ft 540 kts 92°
2026-05-07 17:07 40.59742 48.47973 37113 ft 540 kts 92°
2026-05-07 17:07 40.59978 48.57894 37119 ft 542 kts 92°
2026-05-07 17:08 40.60202 48.67763 37130 ft 542 kts 92°
2026-05-07 17:08 40.60422 48.77695 37127 ft 542 kts 92°
2026-05-07 17:09 40.60633 48.87623 37130 ft 542 kts 92°
2026-05-07 17:09 40.60836 48.97558 37132 ft 542 kts 93°
2026-05-07 17:10 40.61029 49.07489 37116 ft 543 kts 93°
2026-05-07 17:10 40.61212 49.17378 37121 ft 543 kts 92°
2026-05-07 17:11 40.61683 49.27335 37125 ft 545 kts 90°
2026-05-07 17:11 40.62272 49.37298 37107 ft 545 kts 89°
2026-05-07 17:12 40.62852 49.47260 37113 ft 544 kts 90°
2026-05-07 17:12 40.63413 49.57215 37078 ft 544 kts 90°
2026-05-07 17:13 40.63961 49.67126 37094 ft 545 kts 90°
2026-05-07 17:13 40.64500 49.77093 37095 ft 544 kts 90°
2026-05-07 17:14 40.65033 49.87056 37096 ft 544 kts 90°
2026-05-07 17:14 40.65558 49.97038 37105 ft 544 kts 90°
2026-05-07 17:15 40.66073 50.06990 37090 ft 544 kts 90°
2026-05-07 17:15 40.66581 50.16968 37089 ft 545 kts 90°
2026-05-07 17:16 40.67079 50.26948 37103 ft 545 kts 90°
2026-05-07 17:16 40.67566 50.36870 37103 ft 545 kts 90°
2026-05-07 17:17 40.68046 50.46864 37103 ft 545 kts 90°
2026-05-07 17:17 40.68519 50.56850 37103 ft 545 kts 90°
2026-05-07 17:18 40.68983 50.66844 37106 ft 545 kts 90°
2026-05-07 17:18 40.69439 50.76850 37097 ft 546 kts 91°
2026-05-07 17:19 40.69883 50.86797 37108 ft 546 kts 91°
2026-05-07 17:19 40.70319 50.96809 37112 ft 547 kts 91°
2026-05-07 17:20 40.70750 51.06825 37116 ft 547 kts 91°
2026-05-07 17:20 40.71172 51.16859 37116 ft 547 kts 91°
2026-05-07 17:21 40.71584 51.26880 37119 ft 547 kts 91°
2026-05-07 17:21 40.71985 51.36848 37107 ft 548 kts 91°
2026-05-07 17:22 40.72443 51.46892 37112 ft 549 kts 88°
2026-05-07 17:22 40.73599 51.56895 37115 ft 553 kts 81°
2026-05-07 17:23 40.75242 51.66827 37124 ft 553 kts 80°
2026-05-07 17:23 40.76907 51.76753 37120 ft 553 kts 80°
2026-05-07 17:24 40.78540 51.86680 37117 ft 553 kts 81°
2026-05-07 17:24 40.80156 51.96626 37116 ft 553 kts 81°
2026-05-07 17:25 40.81490 52.04890 37115 ft 553 kts 81°
2026-05-07 17:25 40.83344 52.16444 37109 ft 553 kts 81°
2026-05-07 17:26 40.84675 52.24791 37117 ft 553 kts 81°
2026-05-07 17:26 40.86245 52.34684 37124 ft 553 kts 81°
2026-05-07 17:27 40.87817 52.44646 37117 ft 553 kts 81°
2026-05-07 17:27 40.89377 52.54607 37116 ft 553 kts 81°
2026-05-07 17:28 40.90516 52.64662 37117 ft 549 kts 89°
2026-05-07 17:28 40.90988 52.74679 37113 ft 548 kts 91°
2026-05-07 17:29 40.91383 52.84762 37120 ft 548 kts 91°
2026-05-07 17:29 40.91793 52.94850 37103 ft 549 kts 91°
2026-05-07 17:30 40.92207 53.04942 37116 ft 549 kts 91°
2026-05-07 17:30 40.92612 53.15038 37118 ft 549 kts 91°
2026-05-07 17:31 40.92996 53.25077 37113 ft 549 kts 91°
2026-05-07 17:31 40.93372 53.35198 37113 ft 549 kts 91°
2026-05-07 17:32 40.93740 53.45315 37111 ft 549 kts 91°
2026-05-07 17:32 40.94097 53.55407 37111 ft 549 kts 91°
2026-05-07 17:33 40.94445 53.65439 37115 ft 549 kts 91°
2026-05-07 17:33 40.94786 53.75533 37109 ft 549 kts 91°
2026-05-07 17:34 40.95118 53.85645 37102 ft 549 kts 91°
2026-05-07 17:34 40.95442 53.95763 37108 ft 549 kts 92°
2026-05-07 17:35 40.95756 54.05862 37103 ft 549 kts 92°
2026-05-07 17:35 40.96060 54.15913 37095 ft 550 kts 92°
2026-05-07 17:36 40.96358 54.26038 37104 ft 550 kts 92°
2026-05-07 17:36 40.96647 54.36169 37106 ft 550 kts 92°
2026-05-07 17:37 40.96926 54.46300 37109 ft 550 kts 92°
2026-05-07 17:37 40.97197 54.56426 37109 ft 550 kts 92°
2026-05-07 17:38 40.97459 54.66563 37111 ft 550 kts 92°
2026-05-07 17:38 40.97712 54.76707 37082 ft 550 kts 92°
2026-05-07 17:39 40.97956 54.86851 37098 ft 551 kts 92°
2026-05-07 17:39 40.98185 54.96938 37101 ft 551 kts 92°
2026-05-07 17:40 40.98401 55.07080 37098 ft 551 kts 92°
2026-05-07 17:40 40.98609 55.17253 37101 ft 551 kts 92°
2026-05-07 17:41 41.52882 43.76396 36594 ft 0 kts 101°
2026-05-07 17:41 40.98857 55.30283 37308 ft 538 kts 92°
2026-05-07 17:41 40.98963 55.35278 36885 ft 545 kts 92°
2026-05-07 17:42 40.99068 55.40317 37061 ft 548 kts 92°
2026-05-07 17:42 40.99159 55.45316 37071 ft 551 kts 92°
2026-05-07 17:42 40.99325 55.55478 37089 ft 552 kts 92°
2026-05-07 17:43 40.99487 55.65652 37080 ft 552 kts 92°
2026-05-07 17:43 40.99642 55.75827 37077 ft 552 kts 92°
2026-05-07 17:44 40.99803 55.86042 37421 ft 554 kts 92°
2026-05-07 17:44 40.99888 55.91141 37795 ft 552 kts 92°
2026-05-07 17:44 40.99971 55.96208 38137 ft 550 kts 92°
2026-05-07 17:45 41.00048 56.01216 38398 ft 550 kts 92°
2026-05-07 17:45 41.00123 56.06298 38618 ft 551 kts 92°
2026-05-07 17:45 41.00195 56.11374 38816 ft 552 kts 92°
2026-05-07 17:45 41.00265 56.16462 38984 ft 551 kts 92°
2026-05-07 17:46 41.00397 56.26635 39062 ft 551 kts 92°
2026-05-07 17:46 41.00521 56.36798 39064 ft 551 kts 92°
2026-05-07 17:47 41.00655 56.46901 39064 ft 551 kts 91°
2026-05-07 17:47 41.01387 56.57058 39066 ft 554 kts 84°
2026-05-07 17:48 41.02597 56.67155 39044 ft 554 kts 83°
2026-05-07 17:48 41.03833 56.77263 39059 ft 554 kts 83°
2026-05-07 17:49 41.05038 56.87366 39062 ft 554 kts 83°
2026-05-07 17:49 41.06223 56.97475 39054 ft 554 kts 83°
2026-05-07 17:50 41.07395 57.07566 39050 ft 553 kts 83°
2026-05-07 17:50 41.08550 57.17600 39049 ft 553 kts 83°
2026-05-07 17:51 41.09706 57.27710 39050 ft 553 kts 83°
2026-05-07 17:51 41.10851 57.37813 39049 ft 552 kts 84°
2026-05-07 17:52 41.11985 57.47898 39042 ft 552 kts 84°
2026-05-07 17:52 41.13110 57.57990 39044 ft 552 kts 84°
2026-05-07 17:53 41.14225 57.68084 39034 ft 551 kts 84°
2026-05-07 17:53 41.15323 57.78086 39044 ft 550 kts 84°
2026-05-07 17:54 41.16419 57.88157 39040 ft 550 kts 84°
2026-05-07 17:54 41.17505 57.98238 39042 ft 550 kts 84°
2026-05-07 17:55 41.18580 58.08305 39038 ft 550 kts 84°
2026-05-07 17:55 41.19651 58.18374 39042 ft 550 kts 84°
2026-05-07 17:56 41.20715 58.28455 39038 ft 550 kts 84°
2026-05-07 17:56 41.21759 58.38455 39042 ft 549 kts 84°
2026-05-07 17:57 41.22634 58.46899 39032 ft 549 kts 84°
2026-05-07 17:57 41.23833 58.58592 39008 ft 549 kts 84°
2026-05-07 17:58 41.24856 58.68668 39026 ft 549 kts 84°
2026-05-07 17:58 41.25872 58.78746 39030 ft 549 kts 84°
2026-05-07 17:59 41.26878 58.88817 39027 ft 549 kts 84°
2026-05-07 17:59 41.27876 58.98898 39026 ft 549 kts 84°
2026-05-07 18:00 41.28856 59.08898 39026 ft 548 kts 84°
2026-05-07 18:00 41.29834 59.18967 39023 ft 547 kts 84°
2026-05-07 18:01 41.30801 59.29029 39020 ft 547 kts 84°
2026-05-07 18:01 41.31760 59.39091 39021 ft 546 kts 84°
2026-05-07 18:02 41.33171 59.54098 38998 ft 546 kts 84°
2026-05-07 18:03 41.34227 59.64120 39008 ft 547 kts 81°
2026-05-07 18:03 41.36052 59.73959 38999 ft 547 kts 73°
2026-05-07 18:04 41.38404 59.83594 39003 ft 546 kts 72°
2026-05-07 18:04 41.40783 59.93220 39001 ft 546 kts 72°
2026-05-07 18:05 41.43128 60.02869 38996 ft 546 kts 72°
2026-05-07 18:05 41.45430 60.12434 38989 ft 545 kts 72°
2026-05-07 18:06 41.47738 60.22077 38987 ft 545 kts 72°
2026-05-07 18:06 41.50016 60.31725 38995 ft 545 kts 73°
2026-05-07 18:07 41.52281 60.41386 38991 ft 544 kts 73°
2026-05-07 18:07 41.54536 60.51044 38993 ft 544 kts 73°
2026-05-07 18:08 41.56784 60.60713 38993 ft 544 kts 73°
2026-05-07 18:08 41.59133 60.70287 38992 ft 544 kts 71°
2026-05-07 18:09 41.61659 60.79856 38990 ft 544 kts 70°
2026-05-07 18:09 41.64182 60.89421 38983 ft 545 kts 71°
2026-05-07 18:10 41.66686 60.98996 38969 ft 544 kts 71°
2026-05-07 18:10 41.69176 61.08571 38966 ft 545 kts 71°
2026-05-07 18:11 41.71662 61.18170 38965 ft 545 kts 71°
2026-05-07 18:11 41.74136 61.27764 38959 ft 545 kts 71°
2026-05-07 18:12 41.76588 61.37309 38958 ft 545 kts 71°
2026-05-07 18:12 41.79054 61.46947 38958 ft 545 kts 71°
2026-05-07 18:13 41.81504 61.56567 38958 ft 544 kts 71°
2026-05-07 18:13 41.83949 61.66204 38954 ft 544 kts 71°
2026-05-07 18:14 41.86383 61.75839 38953 ft 544 kts 71°
2026-05-07 18:14 41.88794 61.85433 38945 ft 544 kts 71°
2026-05-07 18:15 41.91202 61.95070 38942 ft 543 kts 71°
2026-05-07 18:15 41.93597 62.04699 38946 ft 543 kts 71°
2026-05-07 18:16 41.95990 62.14339 38933 ft 543 kts 71°
2026-05-07 18:16 41.98354 62.23874 38940 ft 539 kts 72°
2026-05-07 18:17 42.00712 62.33439 38934 ft 539 kts 72°
2026-05-07 18:17 42.03063 62.43021 38937 ft 539 kts 72°
2026-05-07 18:18 42.05402 62.52593 38938 ft 536 kts 72°
2026-05-07 18:18 42.07724 62.62142 38935 ft 536 kts 72°
2026-05-07 18:19 42.10039 62.71693 38936 ft 536 kts 72°
2026-05-07 18:19 42.12345 62.81245 38926 ft 534 kts 72°
2026-05-07 18:20 42.14637 62.90769 38927 ft 534 kts 72°
2026-05-07 18:20 42.16904 63.00242 38923 ft 534 kts 72°
2026-05-07 18:21 42.19189 63.09790 38925 ft 533 kts 72°
2026-05-07 18:21 42.21457 63.19308 38923 ft 532 kts 72°
2026-05-07 18:22 42.23717 63.28839 38919 ft 532 kts 72°
2026-05-07 18:22 42.25953 63.38309 38925 ft 532 kts 72°
2026-05-07 18:23 42.27832 63.46309 38921 ft 532 kts 72°
2026-05-07 18:23 42.30431 63.57404 38915 ft 532 kts 72°
2026-05-07 18:24 42.32284 63.65349 38910 ft 532 kts 72°
2026-05-07 18:24 42.34501 63.74907 38906 ft 532 kts 72°
2026-05-07 18:25 42.36717 63.84488 38911 ft 532 kts 72°
2026-05-07 18:25 42.38917 63.94046 38910 ft 532 kts 72°
2026-05-07 18:26 42.41092 64.03563 38903 ft 531 kts 73°
2026-05-07 18:26 42.43243 64.13133 38905 ft 529 kts 73°
2026-05-07 18:27 42.45378 64.22679 38903 ft 529 kts 73°
2026-05-07 18:27 42.47540 64.32275 38903 ft 529 kts 73°
2026-05-07 18:28 42.49688 64.41822 38903 ft 529 kts 73°
2026-05-07 18:28 42.51828 64.51386 38901 ft 529 kts 73°
2026-05-07 18:29 42.53943 64.60888 38901 ft 529 kts 73°
2026-05-07 18:29 42.56061 64.70447 38898 ft 527 kts 73°
2026-05-07 18:30 42.58169 64.80005 38894 ft 526 kts 73°
2026-05-07 18:30 42.60262 64.89537 38895 ft 526 kts 73°
2026-05-07 18:31 42.62347 64.99073 38892 ft 525 kts 73°
2026-05-07 18:31 42.64411 65.08556 38894 ft 522 kts 73°
2026-05-07 18:32 42.66449 65.17967 38889 ft 522 kts 73°
2026-05-07 18:32 42.68494 65.27451 38894 ft 522 kts 73°
2026-05-07 18:33 42.70530 65.36936 38894 ft 520 kts 73°
2026-05-07 18:33 42.72550 65.46387 38894 ft 520 kts 73°
2026-05-07 18:34 42.74563 65.55848 38896 ft 520 kts 74°
2026-05-07 18:34 42.76568 65.65311 38901 ft 519 kts 74°
2026-05-07 18:35 42.78550 65.74722 38898 ft 519 kts 74°
2026-05-07 18:35 42.80548 65.84236 38903 ft 524 kts 74°
2026-05-07 18:36 42.82550 65.93810 38914 ft 525 kts 74°
2026-05-07 18:36 42.84551 66.03433 38906 ft 529 kts 75°
2026-05-07 18:37 42.86548 66.13104 38902 ft 529 kts 75°
2026-05-07 18:37 42.88526 66.22789 38906 ft 529 kts 75°
2026-05-07 18:38 42.90492 66.32481 38912 ft 530 kts 75°
2026-05-07 18:38 42.92360 66.42172 38908 ft 530 kts 79°
2026-05-07 18:39 42.93648 66.52098 38910 ft 530 kts 81°
2026-05-07 18:39 42.94890 66.62024 38911 ft 530 kts 81°
2026-05-07 18:40 42.96039 66.71992 38916 ft 530 kts 82°
2026-05-07 18:40 42.97169 66.81962 38912 ft 530 kts 82°
2026-05-07 18:41 42.98298 66.91862 38920 ft 530 kts 82°
2026-05-07 18:41 42.99425 67.01832 38915 ft 529 kts 82°
2026-05-07 18:42 43.00541 67.11778 38924 ft 529 kts 82°
2026-05-07 18:42 43.01648 67.21734 38935 ft 529 kts 82°
2026-05-07 18:43 43.02746 67.31694 38938 ft 529 kts 82°
2026-05-07 18:43 43.03826 67.41606 38936 ft 530 kts 82°
2026-05-07 18:44 43.04909 67.51582 38939 ft 530 kts 82°
2026-05-07 18:44 43.05984 67.61556 38944 ft 529 kts 82°
2026-05-07 18:45 43.07047 67.71532 38942 ft 529 kts 82°
2026-05-07 18:45 43.08102 67.81525 38947 ft 530 kts 82°
2026-05-07 18:46 43.09152 67.91524 38948 ft 530 kts 82°
2026-05-07 18:46 43.10185 68.01450 38951 ft 529 kts 82°
2026-05-07 18:47 43.11209 68.11421 38952 ft 528 kts 82°
2026-05-07 18:47 43.12228 68.21383 38954 ft 528 kts 82°
2026-05-07 18:48 43.13237 68.31360 38952 ft 528 kts 82°
2026-05-07 18:48 43.14236 68.41323 38954 ft 526 kts 82°
2026-05-07 18:49 43.15222 68.51229 38942 ft 523 kts 82°
2026-05-07 18:49 43.16195 68.61121 38944 ft 523 kts 82°
2026-05-07 18:50 43.17157 68.70949 38948 ft 523 kts 82°
2026-05-07 18:50 43.18119 68.80827 38952 ft 521 kts 83°
2026-05-07 18:51 43.19061 68.90686 38969 ft 521 kts 83°
2026-05-07 18:51 43.19994 69.00536 38977 ft 521 kts 83°
2026-05-07 18:52 43.20920 69.10394 38985 ft 521 kts 83°
2026-05-07 18:52 43.21838 69.20255 38991 ft 521 kts 83°
2026-05-07 18:53 43.22751 69.30125 38987 ft 521 kts 83°
2026-05-07 18:53 43.23654 69.39994 39000 ft 521 kts 84°
2026-05-07 18:54 43.24542 69.49812 39014 ft 522 kts 83°
2026-05-07 18:54 43.25430 69.59726 39021 ft 523 kts 84°
2026-05-07 18:55 43.26312 69.69664 39026 ft 523 kts 84°
2026-05-07 18:55 43.27184 69.79599 39026 ft 523 kts 84°
2026-05-07 18:56 43.28046 69.89523 39029 ft 523 kts 83°
2026-05-07 18:56 43.28899 69.99396 39026 ft 523 kts 83°
2026-05-07 18:57 43.29748 70.09340 39020 ft 523 kts 84°
2026-05-07 18:57 43.30586 70.19275 39014 ft 522 kts 84°
2026-05-07 18:58 43.31410 70.29158 39017 ft 519 kts 84°
2026-05-07 18:58 43.32224 70.39012 39002 ft 518 kts 84°
2026-05-07 18:59 43.33023 70.48794 38996 ft 518 kts 84°
2026-05-07 18:59 43.33818 70.58651 38999 ft 516 kts 84°
2026-05-07 19:00 43.34602 70.68471 38991 ft 515 kts 84°
2026-05-07 19:00 43.35375 70.78276 38993 ft 515 kts 84°
2026-05-07 19:01 43.36141 70.88079 38995 ft 515 kts 84°
2026-05-07 19:01 43.36899 70.97875 38993 ft 514 kts 84°
2026-05-07 19:02 43.37644 71.07587 38994 ft 514 kts 84°
2026-05-07 19:02 43.38386 71.17384 38988 ft 514 kts 84°
2026-05-07 19:03 43.39119 71.27187 38991 ft 514 kts 84°
2026-05-07 19:03 43.39842 71.36987 38983 ft 514 kts 84°
2026-05-07 19:04 43.40557 71.46781 38991 ft 514 kts 84°
2026-05-07 19:04 43.41263 71.56582 38997 ft 514 kts 84°
2026-05-07 19:05 43.41956 71.66345 38988 ft 515 kts 84°
2026-05-07 19:05 43.42648 71.76164 38982 ft 515 kts 84°
2026-05-07 19:06 43.43331 71.85997 38990 ft 515 kts 84°
2026-05-07 19:06 43.44337 72.00727 38992 ft 514 kts 84°
2026-05-07 19:07 43.44995 72.10485 38986 ft 514 kts 84°
2026-05-07 19:07 43.45648 72.20309 38987 ft 514 kts 84°
2026-05-07 19:08 43.46291 72.30132 38985 ft 514 kts 84°
2026-05-07 19:08 43.46926 72.39953 38990 ft 514 kts 84°
2026-05-07 19:09 43.47553 72.49780 38988 ft 514 kts 84°
2026-05-07 19:09 43.48172 72.59603 38984 ft 514 kts 84°
2026-05-07 19:10 43.48779 72.69425 38985 ft 513 kts 84°
2026-05-07 19:10 43.49376 72.79177 38983 ft 514 kts 84°
2026-05-07 19:11 43.49970 72.89002 38987 ft 514 kts 84°
2026-05-07 19:11 43.50555 72.98848 38988 ft 514 kts 84°
2026-05-07 19:12 43.51130 73.08667 38981 ft 513 kts 84°
2026-05-07 19:12 43.51694 73.18422 38985 ft 513 kts 84°
2026-05-07 19:13 43.52253 73.28241 38981 ft 513 kts 84°
2026-05-07 19:13 43.52802 73.38058 38984 ft 513 kts 84°
2026-05-07 19:14 43.53344 73.47883 38981 ft 513 kts 84°
2026-05-07 19:14 43.53874 73.57651 38985 ft 513 kts 84°
2026-05-07 19:15 43.54397 73.67471 38989 ft 513 kts 84°
2026-05-07 19:15 43.54913 73.77327 38987 ft 515 kts 84°
2026-05-07 19:16 43.55426 73.87188 38991 ft 515 kts 84°
2026-05-07 19:16 43.55929 73.97064 38996 ft 515 kts 84°
2026-05-07 19:17 43.56413 74.06838 38790 ft 509 kts 84°
2026-05-07 19:17 43.56650 74.11672 38565 ft 501 kts 84°
2026-05-07 19:17 43.56884 74.16472 38234 ft 498 kts 84°
2026-05-07 19:18 43.57115 74.21220 37862 ft 494 kts 84°
2026-05-07 19:18 43.57363 74.25933 37483 ft 492 kts 84°
2026-05-07 19:18 43.57621 74.30643 37019 ft 491 kts 84°
2026-05-07 19:18 43.57880 74.35348 36544 ft 490 kts 84°
2026-05-07 19:19 43.58134 74.40041 36089 ft 489 kts 84°
2026-05-07 19:19 43.58384 74.44708 35625 ft 487 kts 84°
2026-05-07 19:19 43.58631 74.49373 35136 ft 486 kts 84°
2026-05-07 19:19 43.58872 74.53963 34650 ft 485 kts 84°
2026-05-07 19:20 43.59113 74.58611 34126 ft 485 kts 84°
2026-05-07 19:20 43.59351 74.63250 33573 ft 484 kts 84°
2026-05-07 19:20 43.59587 74.67889 32985 ft 484 kts 84°
2026-05-07 19:20 43.59822 74.72543 32342 ft 485 kts 84°
2026-05-07 19:21 43.60056 74.77199 31671 ft 486 kts 84°
2026-05-07 19:21 43.60287 74.81859 30939 ft 488 kts 84°
2026-05-07 19:21 43.60520 74.86569 30172 ft 492 kts 84°
2026-05-07 19:21 43.60752 74.91301 29345 ft 494 kts 84°
2026-05-07 19:22 43.60984 74.96042 28583 ft 494 kts 84°
2026-05-07 19:22 43.61211 75.00768 27885 ft 493 kts 84°
2026-05-07 19:22 43.61435 75.05471 27413 ft 488 kts 84°
2026-05-07 19:22 43.61656 75.10125 26903 ft 483 kts 85°
2026-05-07 19:23 43.61869 75.14673 26462 ft 477 kts 85°
2026-05-07 19:23 43.62079 75.19229 26021 ft 472 kts 85°
2026-05-07 19:23 43.62286 75.23739 25562 ft 468 kts 85°
2026-05-07 19:23 43.62423 75.26767 25259 ft 465 kts 85°
2026-05-07 19:24 43.62622 75.31154 24808 ft 462 kts 85°
2026-05-07 19:24 43.62820 75.35574 24356 ft 458 kts 85°
2026-05-07 19:24 43.63016 75.39961 23901 ft 456 kts 85°
2026-05-07 19:24 43.63208 75.44321 23418 ft 453 kts 86°
2026-05-07 19:25 43.63399 75.48663 22897 ft 450 kts 86°
2026-05-07 19:25 43.63492 75.52981 22404 ft 447 kts 89°
2026-05-07 19:25 43.63408 75.57267 21931 ft 444 kts 92°
2026-05-07 19:25 43.63226 75.61508 21484 ft 440 kts 93°
2026-05-07 19:26 43.63030 75.65723 21040 ft 437 kts 94°
2026-05-07 19:26 43.62832 75.69905 20590 ft 434 kts 94°
2026-05-07 19:26 43.62635 75.74059 20159 ft 431 kts 94°
2026-05-07 19:26 43.62442 75.78132 19729 ft 429 kts 94°
2026-05-07 19:27 43.62248 75.82227 19313 ft 426 kts 94°
2026-05-07 19:27 43.62053 75.86309 18908 ft 422 kts 94°
2026-05-07 19:27 43.61860 75.90342 18502 ft 419 kts 94°
2026-05-07 19:27 43.61666 75.94355 18063 ft 417 kts 94°
2026-05-07 19:28 43.61472 75.98337 17596 ft 414 kts 94°
2026-05-07 19:28 43.61278 76.02296 17154 ft 412 kts 94°
2026-05-07 19:28 43.61085 76.06226 16717 ft 409 kts 94°
2026-05-07 19:28 43.60890 76.10142 16288 ft 407 kts 94°
2026-05-07 19:29 43.60699 76.13980 15852 ft 405 kts 94°
2026-05-07 19:29 43.60503 76.17852 15413 ft 403 kts 94°
2026-05-07 19:29 43.60308 76.21716 14962 ft 402 kts 94°
2026-05-07 19:29 43.60111 76.25568 14520 ft 401 kts 94°
2026-05-07 19:30 43.59915 76.29405 14078 ft 400 kts 94°
2026-05-07 19:30 43.59718 76.33231 13614 ft 398 kts 94°
2026-05-07 19:30 43.59520 76.37037 13169 ft 395 kts 94°
2026-05-07 19:30 43.59323 76.40813 12745 ft 392 kts 94°
2026-05-07 19:31 43.59127 76.44546 12334 ft 388 kts 94°
2026-05-07 19:31 43.58930 76.48253 11931 ft 385 kts 94°
2026-05-07 19:31 43.58736 76.51921 11521 ft 382 kts 95°
2026-05-07 19:31 43.58541 76.55591 11149 ft 378 kts 95°
2026-05-07 19:32 43.58347 76.59191 10796 ft 373 kts 95°
2026-05-07 19:32 43.58157 76.62698 10677 ft 359 kts 95°
2026-05-07 19:32 43.57973 76.66071 10554 ft 346 kts 95°
2026-05-07 19:32 43.57796 76.69283 10438 ft 334 kts 95°
2026-05-07 19:33 43.57623 76.72425 10323 ft 322 kts 95°
2026-05-07 19:33 43.57455 76.75456 10225 ft 310 kts 95°
2026-05-07 19:33 43.57293 76.78372 10130 ft 299 kts 95°
2026-05-07 19:33 43.57135 76.81193 10039 ft 291 kts 95°
2026-05-07 19:34 43.56979 76.83956 9956 ft 287 kts 95°
2026-05-07 19:34 43.56824 76.86710 9630 ft 288 kts 95°
2026-05-07 19:34 43.56668 76.89473 9325 ft 288 kts 96°
2026-05-07 19:34 43.56511 76.92225 9020 ft 287 kts 96°
2026-05-07 19:35 43.56354 76.94965 8726 ft 286 kts 96°
2026-05-07 19:35 43.56197 76.97693 8437 ft 284 kts 96°
2026-05-07 19:35 43.56043 77.00370 8159 ft 283 kts 96°
2026-05-07 19:35 43.55886 77.03072 7875 ft 282 kts 96°
2026-05-07 19:36 43.55730 77.05765 7580 ft 280 kts 96°
2026-05-07 19:36 43.55573 77.08442 7300 ft 280 kts 96°
2026-05-07 19:36 43.55416 77.11118 7022 ft 279 kts 96°
2026-05-07 19:36 43.55259 77.13783 6742 ft 278 kts 96°
2026-05-07 19:37 43.55102 77.16444 6453 ft 277 kts 96°
2026-05-07 19:37 43.54936 77.19093 6146 ft 277 kts 99°
2026-05-07 19:37 43.54259 77.21529 5797 ft 272 kts 130°
2026-05-07 19:37 43.52837 77.23193 5518 ft 267 kts 148°
2026-05-07 19:38 43.51293 77.24562 5255 ft 268 kts 148°
2026-05-07 19:38 43.49727 77.25845 5182 ft 255 kts 161°
2026-05-07 19:38 43.48055 77.26030 5157 ft 236 kts 196°
2026-05-07 19:38 43.46565 77.25162 5201 ft 229 kts 210°
2026-05-07 19:39 43.45294 77.23943 5143 ft 220 kts 224°
2026-05-07 19:39 43.44271 77.22369 4960 ft 221 kts 234°
2026-05-07 19:39 43.43412 77.20630 4673 ft 218 kts 238°
2026-05-07 19:39 43.42594 77.18879 4378 ft 215 kts 237°
2026-05-07 19:40 43.41770 77.17174 4123 ft 210 kts 236°
2026-05-07 19:40 43.40967 77.15550 3869 ft 200 kts 236°
2026-05-07 19:40 43.40192 77.13995 3604 ft 194 kts 236°
2026-05-07 19:40 43.39448 77.12499 3304 ft 183 kts 236°
2026-05-07 19:41 43.38769 77.11130 3107 ft 165 kts 236°
2026-05-07 19:41 43.38138 77.09848 2896 ft 159 kts 235°
2026-05-07 19:41 43.37500 77.08601 2674 ft 160 kts 236°
2026-05-07 19:41 43.36875 77.07325 2467 ft 161 kts 236°
2026-05-07 19:42 43.36255 77.06069 2261 ft 161 kts 236°
2026-05-07 19:42 43.35714 77.04960 2238 ft 110 kts 236°
2026-05-07 19:42 43.35376 77.04267 2237 ft 66 kts 235°
2026-05-07 19:42 43.35066 77.03642 2242 ft 114 kts 236°
2026-05-07 19:43 43.34488 77.02476 2405 ft 166 kts 236°
2026-05-07 19:43 43.33820 77.01154 3303 ft 168 kts 235°
2026-05-07 19:43 43.33172 76.99861 4168 ft 157 kts 236°
2026-05-07 19:43 43.32521 76.98562 4845 ft 170 kts 236°
2026-05-07 19:44 43.31851 76.97128 5177 ft 191 kts 248°
2026-05-07 19:44 43.31711 76.95200 5199 ft 218 kts 280°
2026-05-07 19:44 43.32481 76.93268 5185 ft 250 kts 313°
2026-05-07 19:44 43.34062 76.91951 5192 ft 287 kts 341°
2026-05-07 19:45 43.36134 76.91695 5197 ft 311 kts
2026-05-07 19:45 43.38189 76.92674 5193 ft 317 kts 30°
2026-05-07 19:45 43.39815 76.94724 5200 ft 319 kts 51°
2026-05-07 19:45 43.41102 76.97171 5202 ft 320 kts 55°
2026-05-07 19:46 43.42345 76.99725 5196 ft 319 kts 56°
2026-05-07 19:46 43.43571 77.02277 5192 ft 319 kts 56°
2026-05-07 19:46 43.45008 77.04607 5169 ft 318 kts 37°
2026-05-07 19:46 43.46934 77.05943 5177 ft 315 kts 12°
2026-05-07 19:47 43.49089 77.06082 5178 ft 311 kts 348°
2026-05-07 19:47 43.51075 77.04982 5179 ft 309 kts 323°
2026-05-07 19:47 43.52533 77.02853 5180 ft 306 kts 299°
2026-05-07 19:47 43.53200 77.00092 5180 ft 305 kts 274°
2026-05-07 19:48 43.52951 76.97118 5192 ft 327 kts 251°
2026-05-07 19:48 43.51887 76.94221 5204 ft 345 kts 238°
2026-05-07 19:48 43.50587 76.91430 5183 ft 346 kts 236°
2026-05-07 19:48 43.49254 76.88667 5180 ft 345 kts 236°
2026-05-07 19:49 43.47815 76.86109 5125 ft 329 kts 223°
2026-05-07 19:49 43.45916 76.84530 5146 ft 313 kts 200°
2026-05-07 19:49 43.43814 76.84198 5153 ft 300 kts 175°
2026-05-07 19:49 43.41883 76.85088 5158 ft 287 kts 153°
2026-05-07 19:50 43.40229 76.86478 5149 ft 269 kts 149°
2026-05-07 19:50 43.38750 76.87826 5101 ft 247 kts 148°
2026-05-07 19:50 43.37389 76.89085 5089 ft 224 kts 148°
2026-05-07 19:50 43.36158 76.90227 5032 ft 202 kts 148°
2026-05-07 19:51 43.35060 76.91247 4805 ft 184 kts 149°
2026-05-07 19:51 43.33998 76.92224 4300 ft 183 kts 149°
2026-05-07 19:51 43.33003 76.93219 4019 ft 170 kts 137°
2026-05-07 19:51 43.32356 76.94550 3820 ft 169 kts 104°
2026-05-07 19:52 43.32284 76.96181 3547 ft 176 kts 91°
2026-05-07 19:52 43.32393 76.97845 3190 ft 173 kts 72°
2026-05-07 19:52 43.32930 76.99289 2828 ft 169 kts 57°
2026-05-07 19:52 43.33570 77.00599 2493 ft 161 kts 55°
2026-05-07 19:53 43.34188 77.01857 2265 ft 157 kts 54°
2026-05-07 19:53 43.34727 77.02956 2236 ft 111 kts 56°
2026-05-07 19:53 43.35067 77.03644 2236 ft 65 kts 56°
2026-05-07 19:53 43.35208 77.03896 2236 ft 22 kts 41°
2026-05-07 19:54 43.35352 77.03979 2236 ft 19 kts 16°
2026-05-07 19:54 43.35430 77.03959 2233 ft 8 kts 274°
2026-05-07 19:54 43.35400 77.03877 2233 ft 11 kts 232°
2026-05-07 19:54 43.35338 77.03819 2236 ft 12 kts 204°
2026-05-07 19:55 43.35252 77.03763 2236 ft 16 kts 216°
2026-05-07 19:55 43.35177 77.03631 2235 ft 25 kts 236°
2026-05-07 19:55 43.34896 77.03043 2232 ft 120 kts 237°
2026-05-07 19:55 43.34306 77.01793 2404 ft 178 kts 237°
2026-05-07 19:56 43.33666 77.00457 3687 ft 149 kts 237°
2026-05-07 19:56 43.33115 76.99322 4754 ft 145 kts 236°
2026-05-07 19:56 43.32519 76.98099 4692 ft 168 kts 247°
2026-05-07 19:56 43.32018 76.96542 4269 ft 189 kts 259°
2026-05-07 19:57 43.31753 76.94723 3983 ft 202 kts 269°
2026-05-07 19:57 43.31730 76.92881 4203 ft 160 kts 276°
2026-05-07 19:57 43.31822 76.91471 3971 ft 157 kts 290°
2026-05-07 19:57 43.32261 76.89713 3203 ft 204 kts 298°
2026-05-07 19:58 43.32913 76.88040 3336 ft 198 kts 306°
2026-05-07 19:58 43.33726 76.86569 3537 ft 170 kts 310°
2026-05-07 19:58 43.34418 76.85473 3195 ft 154 kts 306°
2026-05-07 19:58 43.35099 76.84297 2319 ft 128 kts 309°
2026-05-07 19:59 43.35569 76.83553 2312 ft 57 kts 323°